Find Starlink 35612

NORAD ID: 66128 Int'l Des: 2025-237 Owner: SPXS Country: US Constellation: starlink operational
LEOCIRCULAR

現在のビュー

3D地球を読み込み中...

About Starlink 35612

Starlink 35612 (NORAD 66128) is a starlink constellation satellite (v2 mini) launched Oct 22, 2025 by SPXS of US. It operates in LEO, CIRCULAR orbit with a mass of 575.00 kg.

次回通過

Passes for default location (London). Set your location on the main map for personalized predictions.

高度履歴

Loading altitude history...

軌道要素

1 66128U 25237Q 26263.57284483 .00008415 00000-0 26001-3 0 9992
2 66128 53.1590 213.3043 0000502 86.4576 273.6484 15.34384141 52462
Epoch: Sep 20, 2026 • Age: 8 hours

現在のステータス

高度 463.0 km
遠地点 / 近地点 N/A
速度 7.64 km/s
衛星直下点 5.43°N, 107.86°W
打ち上げ日 Oct 22, 2025
運用期間 0.9 years
タイプ internet

技術仕様

分類 Payload
質量 575.00 kg
乾燥質量 530.00 kg
長さ 0.30 m
スパン 29.00 m
形状 ? Box + pan
製造者 SPXS
バスタイプ Starlink V2MO
フェーズステータス In Orbit
所有者/国 SPXS/US

Most Searched